Year,Month,Day,Hour,Minute,Value (Times are PST for temperature in C)
2011,10,23,00,00,12.90
2011,10,23,00,01,12.90
2011,10,23,00,02,12.90
2011,10,23,00,03,12.90
2011,10,23,00,04,12.90
2011,10,23,00,05,12.90
2011,10,23,00,06,12.90
2011,10,23,00,07,12.80
2011,10,23,00,08,12.80
2011,10,23,00,09,12.80
2011,10,23,00,10,12.80
2011,10,23,00,11,12.80
2011,10,23,00,12,12.80
2011,10,23,00,13,12.80
2011,10,23,00,14,12.80
2011,10,23,00,15,12.70
2011,10,23,00,16,12.70
2011,10,23,00,17,12.70
2011,10,23,00,18,12.70
2011,10,23,00,19,12.70
2011,10,23,00,20,12.60
2011,10,23,00,21,12.60
2011,10,23,00,22,12.60
2011,10,23,00,23,12.60
2011,10,23,00,24,12.60
2011,10,23,00,25,12.50
2011,10,23,00,26,12.50
2011,10,23,00,27,12.50
2011,10,23,00,28,12.50
2011,10,23,00,29,12.50
2011,10,23,00,30,12.50
2011,10,23,00,31,12.50
2011,10,23,00,32,12.50
2011,10,23,00,33,12.50
2011,10,23,00,34,12.50
2011,10,23,00,35,12.50
2011,10,23,00,36,12.50
2011,10,23,00,37,12.50
2011,10,23,00,38,12.50
2011,10,23,00,39,12.50
2011,10,23,00,40,12.50
2011,10,23,00,41,12.50
2011,10,23,00,42,12.50
2011,10,23,00,43,12.50
2011,10,23,00,44,12.50
2011,10,23,00,45,12.60
2011,10,23,00,46,12.60
2011,10,23,00,47,12.60
2011,10,23,00,48,12.50
2011,10,23,00,49,12.50
2011,10,23,00,50,12.50
2011,10,23,00,51,12.50
2011,10,23,00,52,12.50
2011,10,23,00,53,12.50
2011,10,23,00,54,12.40
2011,10,23,00,55,12.40
2011,10,23,00,56,12.30
2011,10,23,00,57,12.30
2011,10,23,00,58,12.20
2011,10,23,00,59,12.10
2011,10,23,01,00,12.00
2011,10,23,01,01,12.00
2011,10,23,01,02,11.90
2011,10,23,01,03,11.80
2011,10,23,01,04,11.70
2011,10,23,01,05,11.60
2011,10,23,01,06,11.60
2011,10,23,01,07,11.50
2011,10,23,01,08,11.40
2011,10,23,01,09,11.30
2011,10,23,01,10,11.20
2011,10,23,01,11,11.10
2011,10,23,01,12,11.10
2011,10,23,01,13,10.90
2011,10,23,01,14,10.90
2011,10,23,01,15,10.80
2011,10,23,01,16,10.80
2011,10,23,01,17,10.70
2011,10,23,01,18,10.70
2011,10,23,01,19,10.60
2011,10,23,01,20,10.60
2011,10,23,01,21,10.60
2011,10,23,01,22,10.60
2011,10,23,01,23,10.50
2011,10,23,01,24,10.40
2011,10,23,01,25,10.40
2011,10,23,01,26,10.40
2011,10,23,01,27,10.30
2011,10,23,01,28,10.30
2011,10,23,01,29,10.20
2011,10,23,01,30,10.20
2011,10,23,01,31,10.20
2011,10,23,01,32,10.10
2011,10,23,01,33,10.10
2011,10,23,01,34,10.10
2011,10,23,01,35,10.10
2011,10,23,01,36,10.00
2011,10,23,01,37,9.90
2011,10,23,01,38,9.90
2011,10,23,01,39,9.80
2011,10,23,01,40,9.70
2011,10,23,01,41,9.70
2011,10,23,01,42,9.60
2011,10,23,01,43,9.60
2011,10,23,01,44,9.50
2011,10,23,01,45,9.50
2011,10,23,01,46,9.40
2011,10,23,01,47,9.40
2011,10,23,01,48,9.30
2011,10,23,01,49,9.30
2011,10,23,01,50,9.30
2011,10,23,01,51,9.30
2011,10,23,01,52,9.20
2011,10,23,01,53,9.20
2011,10,23,01,54,9.20
2011,10,23,01,55,9.20
2011,10,23,01,56,9.20
2011,10,23,01,57,9.10
2011,10,23,01,58,9.10
2011,10,23,01,59,9.10
2011,10,23,02,00,9.10
2011,10,23,02,01,9.10
2011,10,23,02,02,9.10
2011,10,23,02,03,9.00
2011,10,23,02,04,9.00
2011,10,23,02,05,9.00
2011,10,23,02,06,9.00
2011,10,23,02,07,9.00
2011,10,23,02,08,9.00
2011,10,23,02,09,9.00
2011,10,23,02,10,9.10
2011,10,23,02,11,9.10
2011,10,23,02,12,9.10
2011,10,23,02,13,9.10
2011,10,23,02,14,9.10
2011,10,23,02,15,9.10
2011,10,23,02,16,9.00
2011,10,23,02,17,9.00
2011,10,23,02,18,8.90
2011,10,23,02,19,8.90
2011,10,23,02,20,8.90
2011,10,23,02,21,8.90
2011,10,23,02,22,8.90
2011,10,23,02,23,8.90
2011,10,23,02,24,8.90
2011,10,23,02,25,8.90
2011,10,23,02,26,9.00
2011,10,23,02,27,9.00
2011,10,23,02,28,9.00
2011,10,23,02,29,9.00
2011,10,23,02,30,9.10
2011,10,23,02,31,9.10
2011,10,23,02,32,9.10
2011,10,23,02,33,9.00
2011,10,23,02,34,9.00
2011,10,23,02,35,8.90
2011,10,23,02,36,8.90
2011,10,23,02,37,8.90
2011,10,23,02,38,8.80
2011,10,23,02,39,8.80
2011,10,23,02,40,8.70
2011,10,23,02,41,8.70
2011,10,23,02,42,8.70
2011,10,23,02,43,8.70
2011,10,23,02,44,8.70
2011,10,23,02,45,8.60
2011,10,23,02,46,8.60
2011,10,23,02,47,8.60
2011,10,23,02,48,8.60
2011,10,23,02,49,8.60
2011,10,23,02,50,8.60
2011,10,23,02,51,8.60
2011,10,23,02,52,8.60
2011,10,23,02,53,8.50
2011,10,23,02,54,8.50
2011,10,23,02,55,8.50
2011,10,23,02,56,8.50
2011,10,23,02,57,8.50
2011,10,23,02,58,8.50
2011,10,23,02,59,8.50
2011,10,23,03,00,8.50
2011,10,23,03,01,8.50
2011,10,23,03,02,8.50
2011,10,23,03,03,8.40
2011,10,23,03,04,8.40
2011,10,23,03,05,8.40
2011,10,23,03,06,8.40
2011,10,23,03,07,8.30
2011,10,23,03,08,8.30
2011,10,23,03,09,8.30
2011,10,23,03,10,8.30
2011,10,23,03,11,8.30
2011,10,23,03,12,8.20
2011,10,23,03,13,8.20
2011,10,23,03,14,8.20
2011,10,23,03,15,8.20
2011,10,23,03,16,8.20
2011,10,23,03,17,8.20
2011,10,23,03,18,8.20
2011,10,23,03,19,8.20
2011,10,23,03,20,8.20
2011,10,23,03,21,8.20
2011,10,23,03,22,8.20
2011,10,23,03,23,8.20
2011,10,23,03,24,8.20
2011,10,23,03,25,8.10
2011,10,23,03,26,8.10
2011,10,23,03,27,8.10
2011,10,23,03,28,8.10
2011,10,23,03,29,8.10
2011,10,23,03,30,8.10
2011,10,23,03,31,8.20
2011,10,23,03,32,8.20
2011,10,23,03,33,8.20
2011,10,23,03,34,8.20
2011,10,23,03,35,8.20
2011,10,23,03,36,8.20
2011,10,23,03,37,8.20
2011,10,23,03,38,8.10
2011,10,23,03,39,8.10
2011,10,23,03,40,8.10
2011,10,23,03,41,8.10
2011,10,23,03,42,8.00
2011,10,23,03,43,8.00
2011,10,23,03,44,8.00
2011,10,23,03,45,7.90
2011,10,23,03,46,7.90
2011,10,23,03,47,7.90
2011,10,23,03,48,7.90
2011,10,23,03,49,7.90
2011,10,23,03,50,7.80
2011,10,23,03,51,7.80
2011,10,23,03,52,7.80
2011,10,23,03,53,7.80
2011,10,23,03,54,7.80
2011,10,23,03,55,7.80
2011,10,23,03,56,7.80
2011,10,23,03,57,7.80
2011,10,23,03,58,7.80
2011,10,23,03,59,7.80
2011,10,23,04,00,7.70
2011,10,23,04,01,7.70
2011,10,23,04,02,7.70
2011,10,23,04,03,7.70
2011,10,23,04,04,7.60
2011,10,23,04,05,7.60
2011,10,23,04,06,7.60
2011,10,23,04,07,7.60
2011,10,23,04,08,7.50
2011,10,23,04,09,7.50
2011,10,23,04,10,7.50
2011,10,23,04,11,7.40
2011,10,23,04,12,7.40
2011,10,23,04,13,7.40
2011,10,23,04,14,7.30
2011,10,23,04,15,7.30
2011,10,23,04,16,7.30
2011,10,23,04,17,7.30
2011,10,23,04,18,7.30
2011,10,23,04,19,7.30
2011,10,23,04,20,7.30
2011,10,23,04,21,7.30
2011,10,23,04,22,7.30
2011,10,23,04,23,7.30
2011,10,23,04,24,7.30
2011,10,23,04,25,7.30
2011,10,23,04,26,7.30
2011,10,23,04,27,7.30
2011,10,23,04,28,7.30
2011,10,23,04,29,7.30
2011,10,23,04,30,7.30
2011,10,23,04,31,7.20
2011,10,23,04,32,7.20
2011,10,23,04,33,7.20
2011,10,23,04,34,7.20
2011,10,23,04,35,7.20
2011,10,23,04,36,7.20
2011,10,23,04,37,7.20
2011,10,23,04,38,7.20
2011,10,23,04,39,7.10
2011,10,23,04,40,7.10
2011,10,23,04,41,7.10
2011,10,23,04,42,7.10
2011,10,23,04,43,7.20
2011,10,23,04,44,7.20
2011,10,23,04,45,7.20
2011,10,23,04,46,7.20
2011,10,23,04,47,7.20
2011,10,23,04,48,7.20
2011,10,23,04,49,7.20
2011,10,23,04,50,7.20
2011,10,23,04,51,7.20
2011,10,23,04,52,7.10
2011,10,23,04,53,7.10
2011,10,23,04,54,7.10
2011,10,23,04,55,7.10
2011,10,23,04,56,7.10
2011,10,23,04,57,7.10
2011,10,23,04,58,7.10
2011,10,23,04,59,7.10
2011,10,23,05,00,7.10
2011,10,23,05,01,7.10
2011,10,23,05,02,7.10
2011,10,23,05,03,7.10
2011,10,23,05,04,7.10
2011,10,23,05,05,7.00
2011,10,23,05,06,7.00
2011,10,23,05,07,7.00
2011,10,23,05,08,7.00
2011,10,23,05,09,6.90
2011,10,23,05,10,6.90
2011,10,23,05,11,6.90
2011,10,23,05,12,6.90
2011,10,23,05,13,6.90
2011,10,23,05,14,6.90
2011,10,23,05,15,6.90
2011,10,23,05,16,6.90
2011,10,23,05,17,6.90
2011,10,23,05,18,6.80
2011,10,23,05,19,6.80
2011,10,23,05,20,6.80
2011,10,23,05,21,6.80
2011,10,23,05,22,6.80
2011,10,23,05,23,6.80
2011,10,23,05,24,6.80
2011,10,23,05,25,6.80
2011,10,23,05,26,6.80
2011,10,23,05,27,6.80
2011,10,23,05,28,6.90
2011,10,23,05,29,6.90
2011,10,23,05,30,6.90
2011,10,23,05,31,6.80
2011,10,23,05,32,6.80
2011,10,23,05,33,6.80
2011,10,23,05,34,6.80
2011,10,23,05,35,6.80
2011,10,23,05,36,6.80
2011,10,23,05,37,6.80
2011,10,23,05,38,6.70
2011,10,23,05,39,6.70
2011,10,23,05,40,6.70
2011,10,23,05,41,6.70
2011,10,23,05,42,6.70
2011,10,23,05,43,6.70
2011,10,23,05,44,6.70
2011,10,23,05,45,6.70
2011,10,23,05,46,6.70
2011,10,23,05,47,6.70
2011,10,23,05,48,6.70
2011,10,23,05,49,6.80
2011,10,23,05,50,6.80
2011,10,23,05,51,6.70
2011,10,23,05,52,6.70
2011,10,23,05,53,6.70
2011,10,23,05,54,6.70
2011,10,23,05,55,6.70
2011,10,23,05,56,6.70
2011,10,23,05,57,6.70
2011,10,23,05,58,6.70
2011,10,23,05,59,6.70
2011,10,23,06,00,6.70
2011,10,23,06,01,6.70
2011,10,23,06,02,6.70
2011,10,23,06,03,6.70
2011,10,23,06,04,6.70
2011,10,23,06,05,6.70
2011,10,23,06,06,6.60
2011,10,23,06,07,6.60
2011,10,23,06,08,6.70
2011,10,23,06,09,6.60
2011,10,23,06,10,6.60
2011,10,23,06,11,6.60
2011,10,23,06,12,6.70
2011,10,23,06,13,6.70
2011,10,23,06,14,6.70
2011,10,23,06,15,6.70
2011,10,23,06,16,6.70
2011,10,23,06,17,6.70
2011,10,23,06,18,6.70
2011,10,23,06,19,6.70
2011,10,23,06,20,6.70
2011,10,23,06,21,6.70
2011,10,23,06,22,6.70
2011,10,23,06,23,6.60
2011,10,23,06,24,6.60
2011,10,23,06,25,6.60
2011,10,23,06,26,6.60
2011,10,23,06,27,6.60
2011,10,23,06,28,6.60
2011,10,23,06,29,6.60
2011,10,23,06,30,6.60
2011,10,23,06,31,6.60
2011,10,23,06,32,6.60
2011,10,23,06,33,6.60
2011,10,23,06,34,6.60
2011,10,23,06,35,6.60
2011,10,23,06,36,6.60
2011,10,23,06,37,6.60
2011,10,23,06,38,6.60
2011,10,23,06,39,6.60
2011,10,23,06,40,6.50
2011,10,23,06,41,6.40
2011,10,23,06,42,6.40
2011,10,23,06,43,6.40
2011,10,23,06,44,6.40
2011,10,23,06,45,6.40
2011,10,23,06,46,6.40
2011,10,23,06,47,6.40
2011,10,23,06,48,6.40
2011,10,23,06,49,6.40
2011,10,23,06,50,6.40
2011,10,23,06,51,6.40
2011,10,23,06,52,6.40
2011,10,23,06,53,6.40
2011,10,23,06,54,6.30
2011,10,23,06,55,6.30
2011,10,23,06,56,6.30
2011,10,23,06,57,6.30
2011,10,23,06,58,6.30
2011,10,23,06,59,6.30
2011,10,23,07,00,6.20
2011,10,23,07,01,6.20
2011,10,23,07,02,6.20
2011,10,23,07,03,6.20
2011,10,23,07,04,6.20
2011,10,23,07,05,6.20
2011,10,23,07,06,6.20
2011,10,23,07,07,6.30
2011,10,23,07,08,6.30
2011,10,23,07,09,6.30
2011,10,23,07,10,6.30
2011,10,23,07,11,6.20
2011,10,23,07,12,6.20
2011,10,23,07,13,6.20
2011,10,23,07,14,6.20
2011,10,23,07,15,6.20
2011,10,23,07,16,6.20
2011,10,23,07,17,6.20
2011,10,23,07,18,6.20
2011,10,23,07,19,6.20
2011,10,23,07,20,6.20
2011,10,23,07,21,6.20
2011,10,23,07,22,6.20
2011,10,23,07,23,6.20
2011,10,23,07,24,6.20
2011,10,23,07,25,6.20
2011,10,23,07,26,6.20
2011,10,23,07,27,6.20
2011,10,23,07,28,6.20
2011,10,23,07,29,6.20
2011,10,23,07,30,6.20
2011,10,23,07,31,6.20
2011,10,23,07,32,6.10
2011,10,23,07,33,6.10
2011,10,23,07,34,6.10
2011,10,23,07,35,6.10
2011,10,23,07,36,6.00
2011,10,23,07,37,6.00
2011,10,23,07,38,6.00
2011,10,23,07,39,6.00
2011,10,23,07,40,6.00
2011,10,23,07,41,6.00
2011,10,23,07,42,6.00
2011,10,23,07,43,5.90
2011,10,23,07,44,5.90
2011,10,23,07,45,5.90
2011,10,23,07,46,5.90
2011,10,23,07,47,5.90
2011,10,23,07,48,5.90
2011,10,23,07,49,5.90
2011,10,23,07,50,5.80
2011,10,23,07,51,5.80
2011,10,23,07,52,5.80
2011,10,23,07,53,5.80
2011,10,23,07,54,5.80
2011,10,23,07,55,5.80
2011,10,23,07,56,5.90
2011,10,23,07,57,5.90
2011,10,23,07,58,5.90
2011,10,23,07,59,5.90
2011,10,23,08,00,5.90
2011,10,23,08,01,5.80
2011,10,23,08,02,5.80
2011,10,23,08,03,5.90
2011,10,23,08,04,5.90
2011,10,23,08,05,5.90
2011,10,23,08,06,6.00
2011,10,23,08,07,6.00
2011,10,23,08,08,6.00
2011,10,23,08,09,6.00
2011,10,23,08,10,6.00
2011,10,23,08,11,5.90
2011,10,23,08,12,5.90
2011,10,23,08,13,5.90
2011,10,23,08,14,5.90
2011,10,23,08,15,5.90
2011,10,23,08,16,5.90
2011,10,23,08,17,5.90
2011,10,23,08,18,6.00
2011,10,23,08,19,6.00
2011,10,23,08,20,6.00
2011,10,23,08,21,6.00
2011,10,23,08,22,6.00
2011,10,23,08,23,6.00
2011,10,23,08,24,6.00
2011,10,23,08,25,6.00
2011,10,23,08,26,6.00
2011,10,23,08,27,6.00
2011,10,23,08,28,6.00
2011,10,23,08,29,6.00
2011,10,23,08,30,6.10
2011,10,23,08,31,6.10
2011,10,23,08,32,6.10
2011,10,23,08,33,6.20
2011,10,23,08,34,6.20
2011,10,23,08,35,6.20
2011,10,23,08,36,6.30
2011,10,23,08,37,6.40
2011,10,23,08,38,6.40
2011,10,23,08,39,6.50
2011,10,23,08,40,6.60
2011,10,23,08,41,6.60
2011,10,23,08,42,6.60
2011,10,23,08,43,6.60
2011,10,23,08,44,6.60
2011,10,23,08,45,6.70
2011,10,23,08,46,6.70
2011,10,23,08,47,6.60
2011,10,23,08,48,6.60
2011,10,23,08,49,6.60
2011,10,23,08,50,6.60
2011,10,23,08,51,6.60
2011,10,23,08,52,6.60
2011,10,23,08,53,6.70
2011,10,23,08,54,6.70
2011,10,23,08,55,6.80
2011,10,23,08,56,6.90
2011,10,23,08,57,7.00
2011,10,23,08,58,7.10
2011,10,23,08,59,7.20
2011,10,23,09,00,7.30
2011,10,23,09,01,7.40
2011,10,23,09,02,7.50
2011,10,23,09,03,7.60
2011,10,23,09,04,7.70
2011,10,23,09,05,7.80
2011,10,23,09,06,7.90
2011,10,23,09,07,8.00
2011,10,23,09,08,8.00
2011,10,23,09,09,8.10
2011,10,23,09,10,8.10
2011,10,23,09,11,8.20
2011,10,23,09,12,8.20
2011,10,23,09,13,8.20
2011,10,23,09,14,8.10
2011,10,23,09,15,8.10
2011,10,23,09,16,8.10
2011,10,23,09,17,8.00
2011,10,23,09,18,8.00
2011,10,23,09,19,7.90
2011,10,23,09,20,7.90
2011,10,23,09,21,7.90
2011,10,23,09,22,7.90
2011,10,23,09,23,7.90
2011,10,23,09,24,7.90
2011,10,23,09,25,8.00
2011,10,23,09,26,8.00
2011,10,23,09,27,8.00
2011,10,23,09,28,8.00
2011,10,23,09,29,8.00
2011,10,23,09,30,8.10
2011,10,23,09,31,8.10
2011,10,23,09,32,8.20
2011,10,23,09,33,8.30
2011,10,23,09,34,8.40
2011,10,23,09,35,8.60
2011,10,23,09,36,8.70
2011,10,23,09,37,8.70
2011,10,23,09,38,8.80
2011,10,23,09,39,8.90
2011,10,23,09,40,9.00
2011,10,23,09,41,9.10
2011,10,23,09,42,9.20
2011,10,23,09,43,9.20
2011,10,23,09,44,9.30
2011,10,23,09,45,9.40
2011,10,23,09,46,9.50
2011,10,23,09,47,9.60
2011,10,23,09,48,9.70
2011,10,23,09,49,9.70
2011,10,23,09,50,9.70
2011,10,23,09,51,9.70
2011,10,23,09,52,9.60
2011,10,23,09,53,9.50
2011,10,23,09,54,9.40
2011,10,23,09,55,9.40
2011,10,23,09,56,9.30
2011,10,23,09,57,9.30
2011,10,23,09,58,9.20
2011,10,23,09,59,9.20
2011,10,23,10,00,9.30
2011,10,23,10,01,9.30
2011,10,23,10,02,9.40
2011,10,23,10,03,9.40
2011,10,23,10,04,9.50
2011,10,23,10,05,9.60
2011,10,23,10,06,9.60
2011,10,23,10,07,9.70
2011,10,23,10,08,9.70
2011,10,23,10,09,9.90
2011,10,23,10,10,10.00
2011,10,23,10,11,10.10
2011,10,23,10,12,10.30
2011,10,23,10,13,10.40
2011,10,23,10,14,10.60
2011,10,23,10,15,10.70
2011,10,23,10,16,10.80
2011,10,23,10,17,10.90
2011,10,23,10,18,10.90
2011,10,23,10,19,11.10
2011,10,23,10,20,11.20
2011,10,23,10,21,11.20
2011,10,23,10,22,11.20
2011,10,23,10,23,11.30
2011,10,23,10,24,11.30
2011,10,23,10,25,11.40
2011,10,23,10,26,11.40
2011,10,23,10,27,11.40
2011,10,23,10,28,11.50
2011,10,23,10,29,11.60
2011,10,23,10,30,11.70
2011,10,23,10,31,11.80
2011,10,23,10,32,11.90
2011,10,23,10,33,12.00
2011,10,23,10,34,12.10
2011,10,23,10,35,12.20
2011,10,23,10,36,12.30
2011,10,23,10,37,12.40
2011,10,23,10,38,12.40
2011,10,23,10,39,12.50
2011,10,23,10,40,12.60
2011,10,23,10,41,12.70
2011,10,23,10,42,12.70
2011,10,23,10,43,12.80
2011,10,23,10,44,12.80
2011,10,23,10,45,12.90
2011,10,23,10,46,13.00
2011,10,23,10,47,13.00
2011,10,23,10,48,13.10
2011,10,23,10,49,13.20
2011,10,23,10,50,13.20
2011,10,23,10,51,13.20
2011,10,23,10,52,13.30
2011,10,23,10,53,13.30
2011,10,23,10,54,13.30
2011,10,23,10,55,13.30
2011,10,23,10,56,13.30
2011,10,23,10,57,13.40
2011,10,23,10,58,13.40
2011,10,23,10,59,13.50
2011,10,23,11,00,13.50
2011,10,23,11,01,13.60
2011,10,23,11,02,13.60
2011,10,23,11,03,13.70
2011,10,23,11,04,13.70
2011,10,23,11,05,13.70
2011,10,23,11,06,13.80
2011,10,23,11,07,13.90
2011,10,23,11,08,13.90
2011,10,23,11,09,14.00
2011,10,23,11,10,14.00
2011,10,23,11,11,14.00
2011,10,23,11,12,14.00
2011,10,23,11,13,14.10
2011,10,23,11,14,14.00
2011,10,23,11,15,14.00
2011,10,23,11,16,13.90
2011,10,23,11,17,13.90
2011,10,23,11,18,13.80
2011,10,23,11,19,13.80
2011,10,23,11,20,13.80
2011,10,23,11,21,13.70
2011,10,23,11,22,13.80
2011,10,23,11,23,13.70
2011,10,23,11,24,13.70
2011,10,23,11,25,13.70
2011,10,23,11,26,13.70
2011,10,23,11,27,13.70
2011,10,23,11,28,13.70
2011,10,23,11,29,13.70
2011,10,23,11,30,13.70
2011,10,23,11,31,13.70
2011,10,23,11,32,13.70
2011,10,23,11,33,13.70
2011,10,23,11,34,13.70
2011,10,23,11,35,13.70
2011,10,23,11,36,13.70
2011,10,23,11,37,13.60
2011,10,23,11,38,13.60
2011,10,23,11,39,13.60
2011,10,23,11,40,13.60
2011,10,23,11,41,13.60
2011,10,23,11,42,13.60
2011,10,23,11,43,13.60
2011,10,23,11,44,13.70
2011,10,23,11,45,13.70
2011,10,23,11,46,13.70
2011,10,23,11,47,13.70
2011,10,23,11,48,13.70
2011,10,23,11,49,13.80
2011,10,23,11,50,13.90
2011,10,23,11,51,14.00
2011,10,23,11,52,14.10
2011,10,23,11,53,14.20
2011,10,23,11,54,14.30
2011,10,23,11,55,14.30
2011,10,23,11,56,14.30
2011,10,23,11,57,14.30
2011,10,23,11,58,14.30
2011,10,23,11,59,14.30
2011,10,23,12,00,14.20
2011,10,23,12,01,14.20
2011,10,23,12,02,14.20
2011,10,23,12,03,14.20
2011,10,23,12,04,14.20
2011,10,23,12,05,14.20
2011,10,23,12,06,14.20
2011,10,23,12,07,14.20
2011,10,23,12,08,14.20
2011,10,23,12,09,14.20
2011,10,23,12,10,14.20
2011,10,23,12,11,14.20
2011,10,23,12,12,14.20
2011,10,23,12,13,14.20
2011,10,23,12,14,14.20
2011,10,23,12,15,14.20
2011,10,23,12,16,14.20
2011,10,23,12,17,14.30
2011,10,23,12,18,14.40
2011,10,23,12,19,14.40
2011,10,23,12,20,14.50
2011,10,23,12,21,14.50
2011,10,23,12,22,14.50
2011,10,23,12,23,14.60
2011,10,23,12,24,14.60
2011,10,23,12,25,14.60
2011,10,23,12,26,14.70
2011,10,23,12,27,14.70
2011,10,23,12,28,14.80
2011,10,23,12,29,14.80
2011,10,23,12,30,14.90
2011,10,23,12,31,15.00
2011,10,23,12,32,15.00
2011,10,23,12,33,15.10
2011,10,23,12,34,15.10
2011,10,23,12,35,15.10
2011,10,23,12,36,15.00
2011,10,23,12,37,15.00
2011,10,23,12,38,14.90
2011,10,23,12,39,14.80
2011,10,23,12,40,14.80
2011,10,23,12,41,14.80
2011,10,23,12,42,14.80
2011,10,23,12,43,14.80
2011,10,23,12,44,14.80
2011,10,23,12,45,14.80
2011,10,23,12,46,14.90
2011,10,23,12,47,14.90
2011,10,23,12,48,14.80
2011,10,23,12,49,14.80
2011,10,23,12,50,14.80
2011,10,23,12,51,14.90
2011,10,23,12,52,15.00
2011,10,23,12,53,15.10
2011,10,23,12,54,15.10
2011,10,23,12,55,15.20
2011,10,23,12,56,15.30
2011,10,23,12,57,15.30
2011,10,23,12,58,15.30
2011,10,23,12,59,15.30
2011,10,23,13,00,15.30
2011,10,23,13,01,15.30
2011,10,23,13,02,15.30
2011,10,23,13,03,15.30
2011,10,23,13,04,15.30
2011,10,23,13,05,15.20
2011,10,23,13,06,15.10
2011,10,23,13,07,15.10
2011,10,23,13,08,15.10
2011,10,23,13,09,15.00
2011,10,23,13,10,15.10
2011,10,23,13,11,15.10
2011,10,23,13,12,15.20
2011,10,23,13,13,15.30
2011,10,23,13,14,15.40
2011,10,23,13,15,15.40
2011,10,23,13,16,15.40
2011,10,23,13,17,15.30
2011,10,23,13,18,15.30
2011,10,23,13,19,15.40
2011,10,23,13,20,15.50
2011,10,23,13,21,15.50
2011,10,23,13,22,15.50
2011,10,23,13,23,15.60
2011,10,23,13,24,15.60
2011,10,23,13,25,15.60
2011,10,23,13,26,15.50
2011,10,23,13,27,15.50
2011,10,23,13,28,15.50
2011,10,23,13,29,15.50
2011,10,23,13,30,15.60
2011,10,23,13,31,15.60
2011,10,23,13,32,15.60
2011,10,23,13,33,15.60
2011,10,23,13,34,15.60
2011,10,23,13,35,15.60
2011,10,23,13,36,15.60
2011,10,23,13,37,15.40
2011,10,23,13,38,15.40
2011,10,23,13,39,15.30
2011,10,23,13,40,15.20
2011,10,23,13,41,15.00
2011,10,23,13,42,15.00
2011,10,23,13,43,15.00
2011,10,23,13,44,15.00
2011,10,23,13,45,14.90
2011,10,23,13,46,14.90
2011,10,23,13,47,15.00
2011,10,23,13,48,15.00
2011,10,23,13,49,15.10
2011,10,23,13,50,15.20
2011,10,23,13,51,15.30
2011,10,23,13,52,15.30
2011,10,23,13,53,15.30
2011,10,23,13,54,15.30
2011,10,23,13,55,15.20
2011,10,23,13,56,15.20
2011,10,23,13,57,15.10
2011,10,23,13,58,15.10
2011,10,23,13,59,15.00
2011,10,23,14,00,15.00
2011,10,23,14,01,15.00
2011,10,23,14,02,14.90
2011,10,23,14,03,14.80
2011,10,23,14,04,14.80
2011,10,23,14,05,14.60
2011,10,23,14,06,14.60
2011,10,23,14,07,14.60
2011,10,23,14,08,14.50
2011,10,23,14,09,14.50
2011,10,23,14,10,14.50
2011,10,23,14,11,14.50
2011,10,23,14,12,14.40
2011,10,23,14,13,14.40
2011,10,23,14,14,14.30
2011,10,23,14,15,14.30
2011,10,23,14,16,14.30
2011,10,23,14,17,14.30
2011,10,23,14,18,14.30
2011,10,23,14,19,14.20
2011,10,23,14,20,14.20
2011,10,23,14,21,14.20
2011,10,23,14,22,14.20
2011,10,23,14,23,14.20
2011,10,23,14,24,14.20
2011,10,23,14,25,14.20
2011,10,23,14,26,14.20
2011,10,23,14,27,14.20
2011,10,23,14,28,14.10
2011,10,23,14,29,14.00
2011,10,23,14,30,14.00
2011,10,23,14,31,14.00
2011,10,23,14,32,14.00
2011,10,23,14,33,14.00
2011,10,23,14,34,14.00
2011,10,23,14,35,14.00
2011,10,23,14,36,14.10
2011,10,23,14,37,14.10
2011,10,23,14,38,14.10
2011,10,23,14,39,14.10
2011,10,23,14,40,14.00
2011,10,23,14,41,14.00
2011,10,23,14,42,14.00
2011,10,23,14,43,14.00
2011,10,23,14,44,13.90
2011,10,23,14,45,13.90
2011,10,23,14,46,13.80
2011,10,23,14,47,13.80
2011,10,23,14,48,13.80
2011,10,23,14,49,13.70
2011,10,23,14,50,13.70
2011,10,23,14,51,13.70
2011,10,23,14,52,13.70
2011,10,23,14,53,13.70
2011,10,23,14,54,13.70
2011,10,23,14,55,13.70
2011,10,23,14,56,13.70
2011,10,23,14,57,13.70
2011,10,23,14,58,13.70
2011,10,23,14,59,13.70
2011,10,23,15,00,13.70
2011,10,23,15,01,13.70
2011,10,23,15,02,13.70
2011,10,23,15,03,13.70
2011,10,23,15,04,13.70
2011,10,23,15,05,13.70
2011,10,23,15,06,13.70
2011,10,23,15,07,13.70
2011,10,23,15,08,13.70
2011,10,23,15,09,13.70
2011,10,23,15,10,13.70
2011,10,23,15,11,13.60
2011,10,23,15,12,13.60
2011,10,23,15,13,13.60
2011,10,23,15,14,13.60
2011,10,23,15,15,13.60
2011,10,23,15,16,13.70
2011,10,23,15,17,13.70
2011,10,23,15,18,13.70
2011,10,23,15,19,13.70
2011,10,23,15,20,13.70
2011,10,23,15,21,13.70
2011,10,23,15,22,13.70
2011,10,23,15,23,13.70
2011,10,23,15,24,13.70
2011,10,23,15,25,13.70
2011,10,23,15,26,13.70
2011,10,23,15,27,13.70
2011,10,23,15,28,13.70
2011,10,23,15,29,13.70
2011,10,23,15,30,13.70
2011,10,23,15,31,13.80
2011,10,23,15,32,13.80
2011,10,23,15,33,13.80
2011,10,23,15,34,13.80
2011,10,23,15,35,13.80
2011,10,23,15,36,13.80
2011,10,23,15,37,13.70
2011,10,23,15,38,13.70
2011,10,23,15,39,13.80
2011,10,23,15,40,13.80
2011,10,23,15,41,13.80
2011,10,23,15,42,13.80
2011,10,23,15,43,13.80
2011,10,23,15,44,13.90
2011,10,23,15,45,13.90
2011,10,23,15,46,13.90
2011,10,23,15,47,13.90
2011,10,23,15,48,13.80
2011,10,23,15,49,13.90
2011,10,23,15,50,13.90
2011,10,23,15,51,13.90
2011,10,23,15,52,13.90
2011,10,23,15,53,13.90
2011,10,23,15,54,13.90
2011,10,23,15,55,13.90
2011,10,23,15,56,13.90
2011,10,23,15,57,13.80
2011,10,23,15,58,13.80
2011,10,23,15,59,13.70
2011,10,23,16,00,13.70
2011,10,23,16,01,13.70
2011,10,23,16,02,13.70
2011,10,23,16,03,13.70
2011,10,23,16,04,13.70
2011,10,23,16,05,13.70
2011,10,23,16,06,13.70
2011,10,23,16,07,13.70
2011,10,23,16,08,13.70
2011,10,23,16,09,13.70
2011,10,23,16,10,13.70
2011,10,23,16,11,13.70
2011,10,23,16,12,13.70
2011,10,23,16,13,13.70
2011,10,23,16,14,13.70
2011,10,23,16,15,13.70
2011,10,23,16,16,13.70
2011,10,23,16,17,13.70
2011,10,23,16,18,13.70
2011,10,23,16,19,13.60
2011,10,23,16,20,13.60
2011,10,23,16,21,13.50
2011,10,23,16,22,13.50
2011,10,23,16,23,13.50
2011,10,23,16,24,13.50
2011,10,23,16,25,13.50
2011,10,23,16,26,13.50
2011,10,23,16,27,13.50
2011,10,23,16,28,13.50
2011,10,23,16,29,13.50
2011,10,23,16,30,13.50
2011,10,23,16,31,13.50
2011,10,23,16,32,13.50
2011,10,23,16,33,13.40
2011,10,23,16,34,13.40
2011,10,23,16,35,13.40
2011,10,23,16,36,13.40
2011,10,23,16,37,13.40
2011,10,23,16,38,13.40
2011,10,23,16,39,13.40
2011,10,23,16,40,13.40
2011,10,23,16,41,13.40
2011,10,23,16,42,13.40
2011,10,23,16,43,13.40
2011,10,23,16,44,13.40
2011,10,23,16,45,13.40
2011,10,23,16,46,13.30
2011,10,23,16,47,13.30
2011,10,23,16,48,13.40
2011,10,23,16,49,13.40
2011,10,23,16,50,13.40
2011,10,23,16,51,13.40
2011,10,23,16,52,13.40
2011,10,23,16,53,13.40
2011,10,23,16,54,13.30
2011,10,23,16,55,13.30
2011,10,23,16,56,13.30
2011,10,23,16,57,13.30
2011,10,23,16,58,13.30
2011,10,23,16,59,13.30
2011,10,23,17,00,13.30
2011,10,23,17,01,13.30
2011,10,23,17,02,13.30
2011,10,23,17,03,13.30
2011,10,23,17,04,13.30
2011,10,23,17,05,13.30
2011,10,23,17,06,13.30
2011,10,23,17,07,13.20
2011,10,23,17,08,13.20
2011,10,23,17,09,13.20
2011,10,23,17,10,13.10
2011,10,23,17,11,13.00
2011,10,23,17,12,13.00
2011,10,23,17,13,12.90
2011,10,23,17,14,12.80
2011,10,23,17,15,12.80
2011,10,23,17,16,12.70
2011,10,23,17,17,12.70
2011,10,23,17,18,12.60
2011,10,23,17,19,12.60
2011,10,23,17,20,12.60
2011,10,23,17,21,12.50
2011,10,23,17,22,12.50
2011,10,23,17,23,12.40
2011,10,23,17,24,12.40
2011,10,23,17,25,12.30
2011,10,23,17,26,12.30
2011,10,23,17,27,12.30
2011,10,23,17,28,12.30
2011,10,23,17,29,12.30
2011,10,23,17,30,12.20
2011,10,23,17,31,12.20
2011,10,23,17,32,12.20
2011,10,23,17,33,12.20
2011,10,23,17,34,12.20
2011,10,23,17,35,12.20
2011,10,23,17,36,12.20
2011,10,23,17,37,12.20
2011,10,23,17,38,12.20
2011,10,23,17,39,12.20
2011,10,23,17,40,12.20
2011,10,23,17,41,12.20